STARLINK-34508 (64601 NORAD) Tracking and Keplerian Element Data

This shows tracking and keplerian element data for the satellite.

Feedback or suggestion? Click here.




ElementValue
Catalog64601
NameSTARLINK-34508
Epoch Orbit2845
Epoch Day353.60120182
Epoch Year2025
RAAN348.6154
Inclination53.1591
Eccentricity0.0001342
Argument of Perigee88.8232
Mean Anonmoly271.2927
Mean Motion15.39626789
Decay Rate0.00042262
L11 64601U 25137H 25353.60120182 .00042262 00000+0 10604-2 0 9991
L22 64601 53.1591 348.6154 0001342 88.8232 271.2927 15.39626789 28450



Live tracking and technical data element details for STARLINK-34508 (NORAD 64601). STARLINK-34508 can be tracked NOW for your location showing map with azimuth and elevation plus other details from your city location.







IsCatalogInMostPopularTable: catalog: 64601, numindb: 16
Update: records affected: 1



GetName: 64601 STARLINK-34508

Hit Count: updated at: Mon, 20 Apr 2026 10:20:12 GMT